EW5790 Weather Reports


Display with metric or nautical units.
time (UTC)temp
F
wind
direction
speed
MPH
gust
MPH
rain 1hr
in
rain 24hr
in
rain mn
in
humidity
%
barometer
mb
20260901170012 91 279 0.0 0.0 0.00 0.00 0.00 55 1018.5
20260901164508 92 314 0.0 0.0 0.00 0.00 0.00 57 1018.7
20260901163004 91 236 0.0 0.0 0.00 0.00 0.00 57 1018.8
20260901161559 91 257 0.0 0.0 0.00 0.00 0.00 57 1018.9
20260901160058 90 242 0.0 0.0 0.00 0.00 0.00 58 1019.1
20260901154551 89 321 0.0 0.0 0.00 0.00 0.00 59 1019.2
20260901153053 89 263 0.0 0.0 0.00 0.00 0.00 61 1019.3
20260901151543 87 9 0.0 0.0 0.00 0.00 0.00 62 1019.4
20260901150037 86 74 0.0 0.0 0.00 0.00 0.00 62 1019.4
20260901144534 85 187 0.0 0.0 0.00 0.00 0.00 62 1019.6
20260901143030 84 184 0.0 0.0 0.00 0.00 0.00 59 1019.4
20260901141534 83 327 0.0 0.0 0.00 0.00 0.00 55 1019.6
20260901140019 81 299 0.0 0.0 0.00 0.00 0.00 38 1019.7
20260901134514 78 270 0.0 0.0 0.00 0.00 0.00 8 1019.7
20260901133010 76 270 0.0 0.0 0.00 0.00 0.00 1 1019.7
20260901131505 75 319 0.0 0.0 0.00 0.00 0.00 1 1019.7
20260901130002 73 319 0.0 0.0 0.00 0.00 0.00 1 1019.8
20260901124601 72 319 0.0 0.0 0.00 0.00 0.00 1 1019.8
20260901123053 70 319 0.0 0.0 0.00 0.00 0.00 1 1019.8
20260901121549 69 319 0.0 0.0 0.00 0.00 0.00 1 1019.7
20260901120046 67 319 0.0 0.0 0.00 0.00 0.00 1 1019.6
20260901114553 67 319 0.0 0.0 0.00 0.00 0.00 1 1019.4
20260901113039 67 319 0.0 0.0 0.00 0.00 0.00 1 1019.1
20260901111532 67 319 0.0 0.0 0.00 0.00 0.00 1 1018.9
20260901110028 67 319 0.0 0.0 0.00 0.00 0.00 1 1018.7
20260901104523 67 319 0.0 0.0 0.00 0.00 0.00 1 1018.5
20260901103019 67 319 0.0 0.0 0.00 0.00 0.00 1 1018.4
20260901101514 67 319 0.0 0.0 0.00 0.00 0.00 1 1018.2
20260901100010 68 319 0.0 0.0 0.00 0.00 0.00 1 1018.0
20260901094507 68 319 0.0 0.0 0.00 0.00 0.00 1 1017.8
20260901093001 68 319 0.0 0.0 0.00 0.00 0.00 1 1017.6
20260901091558 68 319 0.0 0.0 0.00 0.00 0.00 1 1017.6
20260901090053 68 319 0.0 0.0 0.00 0.00 0.00 1 1017.6
20260901084548 68 319 0.0 0.0 0.00 0.00 0.00 1 1017.6
20260901083044 69 319 0.0 0.0 0.00 0.00 0.00 1 1017.5
20260901081543 69 319 0.0 0.0 0.00 0.00 0.00 1 1017.5
20260901080036 69 319 0.0 0.0 0.00 0.00 0.00 1 1017.6
20260901074532 69 319 0.0 0.0 0.00 0.00 0.00 1 1017.7
20260901073028 69 319 0.0 0.0 0.00 0.00 0.00 1 1017.7
20260901071525 69 319 0.0 0.0 0.00 0.00 0.00 1 1017.7
20260901070018 69 319 0.0 0.0 0.00 0.00 0.00 1 1017.9
20260901064514 70 319 0.0 0.0 0.00 0.00 0.00 1 1017.9
20260901063015 70 319 0.0 0.0 0.00 0.00 0.00 1 1018.0
20260901061505 70 319 0.0 0.0 0.00 0.00 0.00 1 1018.0
20260901060001 70 319 0.0 0.0 0.00 0.00 0.00 1 1018.2
20260901054556 70 319 0.0 0.0 0.00 0.00 0.00 1 1018.2
20260901053053 71 319 0.0 0.0 0.00 0.00 0.00 1 1018.4
20260901051548 71 319 0.0 0.0 0.00 0.00 0.00 1 1018.4
20260901050044 71 319 0.0 0.0 0.00 0.00 0.00 1 1018.3
20260901044540 72 319 0.0 0.0 0.00 0.00 0.00 1 1018.2
20260901043037 72 319 0.0 0.0 0.00 0.00 0.00 1 1018.2
20260901041537 72 319 0.0 0.0 0.00 0.00 0.00 1 1018.2
20260901040028 72 319 0.0 0.0 0.00 0.00 0.00 1 1018.1
20260901034529 73 319 0.0 0.0 0.00 0.00 0.00 1 1018.1
20260901033019 73 319 0.0 0.0 0.00 0.00 0.00 1 1018.1
20260901031527 73 319 0.0 0.0 0.00 0.00 0.00 1 1018.1
20260901030011 73 319 0.0 0.0 0.00 0.00 0.00 1 1018.1
20260901024506 74 319 0.0 0.0 0.00 0.00 0.00 1 1018.0
20260901023005 74 319 0.0 0.0 0.00 0.00 0.00 1 1017.9
20260901021558 74 319 0.0 0.0 0.00 0.00 0.00 1 1017.8
20260901020054 74 319 0.0 0.0 0.00 0.00 0.00 1 1017.7
20260901014549 75 319 0.0 0.0 0.00 0.00 0.00 1 1017.5
20260901013103 75 319 0.0 0.0 0.00 0.00 0.00 1 1017.4
20260901011541 76 319 0.0 0.0 0.00 0.00 0.00 1 1017.0
20260901010036 77 319 0.0 0.0 0.00 0.00 0.00 5 1016.8
20260901004531 78 319 0.0 0.0 0.00 0.00 0.00 16 1016.7
20260901003027 80 319 0.0 0.0 0.00 0.00 0.00 29 1016.6
20260901001522 82 319 0.0 0.0 0.00 0.00 0.00 47 1016.5
20260901000025 85 319 0.0 0.0 0.00 0.00 0.00 57 1016.5
20260831234513 87 319 0.0 0.0 0.00 0.00 0.00 61 1016.5
20260831233010 88 319 0.0 0.0 0.00 0.00 0.00 60 1016.6
20260831231505 88 319 0.0 0.0 0.00 0.00 0.00 60 1016.7
20260831230101 88 319 0.0 0.0 0.00 0.00 0.00 62 1016.6
20260831224555 88 294 0.0 0.0 0.00 0.00 0.00 61 1016.7
20260831223052 87 294 0.0 0.0 0.00 0.00 0.00 60 1016.9
20260831221600 87 293 0.0 0.0 0.00 0.00 0.00 60 1016.9
20260831220044 87 293 0.0 0.0 0.00 0.00 0.00 63 1017.0
20260831214540 88 292 0.0 0.0 0.00 0.00 0.00 64 1017.1
20260831213134 89 292 0.0 0.0 0.00 0.00 0.00 64 1017.2